AirNav   Phillips 66 Aviation Fuel
 
 346 users online  

2K6 Elk County Airport
Moline, Kansas, USA


FAA INFORMATION EFFECTIVE 01 FEBRUARY 2018

Location

FAA Identifier: 2K6
Lat/Long: 37-22-51.3000N / 096-16-16.0000W
37-22.855000N / 096-16.266667W
37.3809167 / -96.2711111
(estimated)
Elevation: 1063 ft. / 324 m (estimated)
Variation: 06E (1985)
From city: 3 miles NE of MOLINE, KS
Time zone: UTC -6 (UTC -5 during Daylight Saving Time)
Zip code: 67345

Airport Operations

Airport use: Open to the public
Activation date: 12/1946
Control tower: no
ARTCC: KANSAS CITY CENTER
FSS: WICHITA FLIGHT SERVICE STATION
NOTAMs facility: ICT (NOTAM-D service available)
Attendance: UNATNDD
Wind indicator: yes
Segmented circle: no

Airport Communications

CTAF: 122.9

Nearby radio navigation aids

VOR radial/distance  VOR name  Freq  Var
BVOr332/35.0BARTLESVILLE VOR/DME117.9008E
CNUr240/35.5CHANUTE VOR/DME109.2005E

 
NDB name  Hdg/Dist  Freq  Var  ID
COFFEYVILLE292/37.621205ECFV -.-. ..-. ...-

Airport Services

Airframe service: NONE
Powerplant service: NONE
Bottled oxygen: NONE
Bulk oxygen: NONE

Runway Information

Runway 18/36

Dimensions: 2510 x 40 ft. / 765 x 12 m
Surface: asphalt, in good condition
Gradient: N.
Operational restrictions: RWY 18/36 HAS CENTERLINE MARKING ONLY
RUNWAY 18  RUNWAY 36
Latitude: 37-23.062255N37-22.649157N
Longitude: 096-16.251918W096-16.279925W
Elevation: 1063.0 ft.1053.0 ft.
Gradient: 0.4% UP
Traffic pattern: leftleft
Runway heading: 177 magnetic, 183 true357 magnetic, 003 true
Markings: NSTD, in good conditionNSTD, in good condition
Obstructions: 41 ft. tree, 1560 ft. from runway, 26 ft. right of centerline, 33:1 slope to clear
OVERGROWN GRASS WATERWAY 20 FT FM RY END. SMALL TREE 25 FT TALL, 115 FT RIGHT OF RWY.
32 ft. pole, 260 ft. from runway, 75 ft. right of centerline, 1:1 slope to clear
+15 FT ROAD AT THLD.

Airport Ownership and Management from official FAA records

Ownership: Publicly-owned
Owner: ELK COUNTY
COURTHOUSE
HOWARD, KS 67349
Phone 620-374-2490
Manager: BYRDEE MILLER
POST OFFICE BOX 623
HOWARD, KS 67349
Phone 620-374-3597

Airport Operational Statistics

Aircraft based on the field: 2
Single engine airplanes: 2
    
Aircraft operations: 10/year *
100% local general aviation
* for 12-month period ending 09 May 2017

Additional Remarks

WILDLIFE ON & INVOF ARPT.

Instrument Procedures

There are no published instrument procedures at 2K6.

Some nearby airports with instrument procedures:

KIDP - Independence Municipal Airport (27 nm SE)
13K - Lt. William M. Milliken Airport (28 nm N)
2K7 - Neodesha Municipal Airport (30 nm E)
KEQA - El Dorado/Captain Jack Thomas Memorial Airport (35 nm NW)
KPPF - Tri-City Airport (37 nm E)
 
Loc | Ops | Rwys | IFR | FBO | Links
Com | Nav | Svcs | Stats | Notes

Kansas City Aviation Department
 
Area around 2K6 (Elk County Airport)
 
Road maps at: MapQuest Bing Google
 
Aerial photo
WARNING: Photo may not be current or correct
Aerial photo of 2K6 (Elk County Airport)
Photo by Eve Cascella
Photo taken 22-Sep-2013
looking north.

Do you have a better or more recent aerial photo of Elk County Airport that you would like to share? If so, please send us your photo.

 
Sectional chart

 
Airport distance calculator
Flying to Elk County Airport? Find the distance to fly.

From to 2K6

Sunrise and sunset
Times for 19-Feb-2018
 Local
(UTC-6)
 Zulu
(UTC)
Morning civil twilight06:4412:44
Sunrise07:1013:10
Sunset18:0800:08
Evening civil twilight18:3400:34

Current date and time
Zulu (UTC)  19-Feb-2018 10:59:12
Local (UTC-6)  19-Feb-2018 04:59:12
 
METAR
KIDP 
27nm SE 
191035Z AUTO 19024G29KT 10SM OVC012 17/15 A2972 RMK AO2 T01720151
KEQA 
35nm NW 
191035Z AUTO 20022G33KT 10SM OVC017 20/16 A2961 RMK AO2
KPPF 
37nm E 
191052Z AUTO 18013G23KT 10SM OVC011 17/16 A2971 RMK AO2 RAB39E52 SLP058 P0000 T01720156
KCFV 
38nm SE 
191052Z AUTO 19014G23KT 10SM OVC015 17/16 A2973 RMK AO2 PK WND 20026/1007 SLP066 T01720156
KWLD 
39nm W 
191054Z AUTO 20021G37KT 10SM BKN023 19/16 A2966 RMK AO2 PK WND 20037/1052 SLP037 T01890161
KBVO 
39nm S 
191053Z AUTO 18014G23KT 10SM OVC017 18/14 A2974 RMK AO2 SLP064 T01780144
KCNU 
41nm NE 
191052Z AUTO 19022G29KT 10SM -RA OVC011 17/16 A2968 RMK AO2 PK WND 18034/1016 RAB48 SLP046 P0000 T01720156
K3AU 
42nm NW 
191035Z AUTO 20022G30KT 10SM OVC016 17/15 A2960 RMK AO2
K1K1 
46nm NW 
191030Z AUTO 20021G31KT 10SM OVC015 17/15 A2960 RMK AO2 T01700145
KBEC 
49nm NW 
191035Z AUTO 20021G30KT 10SM OVC015 17/15 A2960 RMK AO2 T01740145
TAF
KBVO 
39nm S 
190534Z 1906/2006 18016G25KT P6SM OVC005 TEMPO 1906/1909 4SM BR OVC003 FM191100 18016G25KT P6SM OVC007 TEMPO 1911/1915 3SM TSRA BR OVC004CB FM191900 18015G24KT P6SM OVC012
KCNU 
41nm NE 
190855Z 1909/2006 18017G22KT 3SM -DZ BR OVC003 WS020/19055KT TEMPO 1909/1912 6SM BR OVC006 FM191200 19022G30KT P6SM -SHRA VCTS OVC009CB FM192000 19017G26KT 4SM -SHRA OVC009
NOTAMs
Click for the latest NOTAMs
NOTAMs are issued by the DoD/FAA and will open in a separate window not controlled by AirNav.

 

 
 

Would you like to see your business listed on this page?

 If your business provides an interesting product or service to pilots, flight crews, aircraft, or users of the Elk County Airport, you should consider listing it here.  To start the listing process, click on the button below
 
Add a business
 

Other Pages about Elk County Airport

Update a link
 
Copyright © AirNav, LLC. All rights reserved. Privacy Policy  Contact